Location: Sobotiste
(48.7170°N, 17.4000°E)
Time: 14:05:32
(UTC+01:00)

N. Korean satellite - Visible Passes

Search period start: 19 November 2018 00:00
Search period end: 29 November 2018 00:00
Orbit: 457 x 511 km, 97.2° (Epoch: 18 November)

Date Brightness Start Highest point End Pass type
(mag) Time Alt. Az. Time Alt. Az. Time Alt. Az.
19 Nov 6.4 06:22:58 10° NNE 06:26:27 84° WNW 06:29:53 10° SSW visible
19 Nov 6.5 17:02:12 10° SSE 17:05:45 64° ENE 17:09:16 10° N visible
19 Nov 10.2 18:38:45 10° WSW 18:39:36 11° W 18:40:27 10° WNW visible
20 Nov 7.7 05:58:33 10° NNE 06:01:54 46° E 06:05:13 10° S visible
20 Nov 7.2 16:38:06 10° SE 16:41:19 33° ENE 16:44:32 10° N visible
20 Nov 9.4 18:12:12 10° SW 18:14:52 19° W 18:17:31 10° NW visible
21 Nov 9.1 05:34:24 10° NE 05:37:16 24° E 05:40:07 10° SSE visible
21 Nov 8.2 17:46:54 10° SSW 17:50:13 36° W 17:53:31 10° NNW visible
22 Nov 9.9 05:10:52 10° ENE 05:12:34 13° E 05:14:15 10° ESE visible
22 Nov 6.8 17:22:06 10° S 17:25:39 72° WSW 17:29:10 10° NNW visible
23 Nov 6.5 06:18:21 10° NNE 06:21:49 86° ESE 06:25:16 10° SSW visible
23 Nov 6.6 16:57:40 10° SSE 17:01:09 56° ENE 17:04:36 10° N visible
23 Nov 10.1 18:33:36 10° WSW 18:34:56 12° W 18:36:17 10° WNW visible
24 Nov 7.9 05:53:58 10° NNE 05:57:15 41° E 06:00:32 10° S visible
24 Nov 7.4 16:33:37 10° SE 16:36:43 29° ENE 16:39:48 10° N visible
24 Nov 9.2 18:07:27 10° SW 18:10:13 21° W 18:12:59 10° NW visible
25 Nov 9.3 05:29:52 10° NE 05:32:36 22° E 05:35:20 10° SSE visible
25 Nov 8.0 17:42:13 10° S 17:45:34 40° W 17:48:54 10° NNW visible
26 Nov 10.0 05:06:32 10° ENE 05:07:52 12° E 05:09:11 10° ESE visible
26 Nov 6.6 17:17:29 10° S 17:21:00 82° WSW 17:24:30 10° NNW visible
27 Nov 6.7 06:13:41 10° NNE 06:17:09 75° ESE 06:20:37 10° S visible
27 Nov 6.7 16:53:06 10° SSE 16:56:30 49° ENE 16:59:53 10° N visible
27 Nov 10.0 18:28:34 10° WSW 18:30:15 13° W 18:31:55 10° WNW visible
28 Nov 8.2 05:49:19 10° NNE 05:52:34 36° E 05:55:48 10° SSE visible
28 Nov 7.5 16:29:07 10° SE 16:32:05 26° ENE 16:35:02 10° N visible
28 Nov 9.0 18:02:38 10° SSW 18:05:31 23° W 18:08:23 10° NW visible
